Theta_e
290 290 290 290 290 288 287 287 287 287 289 287 285 285 286 284 278 281 291 294 292 294 294 293 293 295 294 295 295 295 296 297 297 296 296 295 295 295 296 296 297 297 298 299 300 301 302 303 307 313 315 315 316 316 317 317 318 317 316 315 314 314 313 315 315 315 316 317 318 317 317 316 316 315 315 316 316 316 315 315 316 315 313 312 312 311 311
287 289 291 291 289 287 287 286 286 287 289 289 289 288 288 287 284 291 294 291 287 290 291 292 293 294 294 294 295 294 294 294 294 294 294 294 294 295 295 295 296 297 297 298 299 300 300 301 302 304 310 313 314 315 315 316 316 317 317 316 315 314 313 311 312 313 313 314 316 316 316 316 315 315 315 314 314 314 314 313 312 311 312 312 312 313 313
285 288 290 290 289 287 286 286 286 287 287 289 290 290 290 292 291 291 290 288 286 291 293 293 294 294 294 293 292 292 292 293 294 293 293 293 294 295 295 296 296 296 297 297 298 298 299 300 303 306 309 312 313 314 316 315 315 316 317 316 315 314 314 313 313 313 312 313 314 314 313 313 312 314 315 314 313 312 311 310 311 311 312 312 312 313 314
282 287 288 288 289 288 286 285 284 284 284 282 284 285 289 289 288 290 289 287 285 290 293 293 293 293 292 291 291 291 292 293 293 292 292 293 294 294 295 296 296 296 296 296 297 297 298 299 300 302 305 308 310 313 315 315 316 316 316 316 315 315 315 314 314 312 312 312 312 311 311 311 311 312 312 312 311 311 310 310 310 311 312 312 312 312 312
282 286 287 286 286 286 283 282 284 285 285 285 287 288 290 292 293 289 288 288 290 291 293 290 290 290 290 289 290 291 292 293 294 293 293 294 294 294 295 296 296 296 296 296 297 297 298 299 300 300 301 301 302 304 307 310 313 314 315 315 315 314 314 314 313 310 311 311 311 310 309 310 308 309 310 310 310 310 311 311 309 310 311 311 311 310 311
283 285 285 285 283 278 278 287 290 288 286 286 285 285 287 289 291 288 290 290 292 292 291 289 288 289 289 290 290 293 291 291 292 294 294 295 295 295 296 296 296 296 297 297 298 298 298 299 299 300 300 299 299 300 301 301 302 302 303 305 309 312 314 314 313 312 312 312 310 310 309 309 309 308 309 309 309 309 308 308 309 309 308 310 309 310 311
282 283 283 281 276 278 287 292 292 291 291 290 288 289 289 290 291 291 289 289 289 291 291 290 290 291 292 292 291 292 294 293 292 292 293 295 295 295 295 295 296 296 296 297 297 298 298 299 299 299 299 299 299 299 299 298 298 299 299 300 300 302 305 311 314 313 312 312 311 311 310 310 310 308 307 307 308 306 308 309 307 307 308 309 310 310 310
283 282 279 274 276 285 290 291 292 292 292 289 290 288 290 291 291 290 288 289 288 290 290 291 292 291 292 293 293 292 294 294 293 293 292 293 294 294 295 295 295 296 296 296 297 297 299 299 299 299 298 299 298 298 299 298 298 298 298 298 298 299 299 300 303 309 312 312 311 311 310 310 309 307 306 307 308 305 305 305 309 311 307 307 309 307 306
279 279 279 280 285 286 288 286 287 286 285 286 284 283 286 291 292 291 290 290 291 291 291 292 292 293 292 290 291 295 295 294 295 295 295 295 295 295 296 296 296 297 298 298 298 298 298 298 298 298 298 298 298 297 297 297 297 297 297 297 297 298 298 298 299 300 302 303 303 304 306 307 308 305 305 305 304 304 307 307 306 306 308 309 307 306 308
283 281 279 281 280 278 282 287 291 291 290 289 289 286 284 291 292 294 292 289 289 290 290 290 291 291 288 284 286 292 295 296 295 296 296 297 297 297 297 297 297 297 297 297 298 297 297 297 298 299 298 298 297 296 296 296 295 295 295 295 296 297 297 298 298 299 299 298 298 299 299 299 300 301 304 305 304 304 306 307 307 307 306 306 305 307 307
281 280 279 279 277 279 284 285 287 290 290 289 288 285 282 288 291 292 292 290 290 289 289 289 288 286 283 283 286 291 293 294 295 294 295 296 296 297 297 296 295 296 296 297 297 297 296 296 297 298 298 298 296 296 296 295 295 294 294 294 295 296 297 298 298 298 298 297 296 296 296 296 297 297 298 300 304 304 304 304 303 304 304 304 303 302 304
277 277 277 276 278 277 284 286 288 289 290 291 284 275 277 286 290 291 290 289 289 288 288 287 284 283 280 282 286 292 293 295 296 295 293 292 293 294 296 296 296 296 296 296 295 295 295 295 297 297 297 296 296 296 296 296 295 294 294 294 294 294 295 295 297 297 297 296 295 295 294 294 294 294 295 296 297 299 302 303 303 301 301 303 303 304 301
277 278 277 278 278 283 286 287 289 290 292 291 280 274 279 287 288 290 290 289 289 289 288 287 283 285 288 289 292 293 294 291 290 290 291 291 292 292 292 292 294 294 294 294 294 294 294 296 296 296 296 295 294 295 295 294 294 295 295 295 294 294 294 294 295 295 296 295 295 295 295 294 294 295 295 294 294 295 296 298 300 300 300 299 301 302 298
274 275 275 276 277 282 287 289 289 290 289 282 279 285 290 289 290 291 292 290 289 288 288 287 288 289 291 293 293 291 290 289 289 290 290 290 290 291 293 293 293 292 292 292 293 293 294 295 295 295 295 293 293 293 293 292 294 296 296 295 294 294 294 294 294 294 294 294 295 296 296 296 295 295 295 295 294 294 294 294 295 295 295 296 297 300 300
276 273 273 274 274 282 289 287 288 291 284 283 288 289 290 292 291 291 290 290 289 289 286 287 287 288 288 289 289 289 289 289 289 289 289 289 288 288 289 290 291 291 290 290 291 291 292 293 293 293 292 291 291 291 290 291 293 294 294 294 293 293 293 293 293 293 293 293 294 295 295 295 295 295 295 295 295 295 295 295 294 294 294 295 297 298 299
273 273 273 274 281 284 288 287 282 286 288 290 290 290 287 290 290 289 289 289 289 289 287 286 286 286 286 285 286 286 286 287 287 288 288 288 288 289 289 290 290 291 290 290 289 289 290 291 291 291 291 290 290 289 289 291 291 292 292 292 292 292 292 292 292 292 292 293 293 293 294 294 295 294 294 294 295 295 295 294 294 293 294 295 295 296 297
275 277 281 286 287 287 288 288 287 288 289 291 291 290 289 288 288 290 288 288 288 289 288 286 286 285 285 284 285 285 285 285 286 286 286 286 287 286 287 288 290 290 289 289 289 288 289 289 289 289 289 289 289 288 289 291 291 291 291 291 290 290 290 291 291 291 292 292 292 292 293 293 293 294 294 293 294 293 294 294 294 293 293 293 293 293 294
287 288 288 289 288 288 289 290 291 290 290 292 291 290 289 289 290 290 289 289 289 288 288 287 286 286 286 286 285 285 285 285 285 286 286 286 286 286 287 288 289 289 289 289 288 288 288 288 288 289 288 288 287 287 288 289 289 289 290 289 289 289 289 289 290 291 291 291 291 291 291 292 293 293 293 293 293 293 294 293 293 293 293 293 293 293 293
283 279 288 287 287 288 289 290 292 293 293 292 292 291 291 291 292 291 292 290 289 289 289 288 287 285 285 285 284 284 285 285 284 284 284 284 285 286 286 287 288 288 288 288 287 287 287 287 287 288 288 288 288 288 288 288 288 288 288 288 288 288 287 288 288 288 289 289 289 290 290 290 291 292 292 292 293 292 293 292 292 292 292 292 291 292 293
281 282 287 289 290 290 290 290 290 291 292 293 293 293 293 293 294 293 292 292 290 289 288 288 287 286 286 285 284 284 284 283 283 284 284 285 286 286 286 287 287 286 286 286 286 286 286 286 287 287 287 287 287 287 288 288 288 288 288 287 286 286 286 286 287 287 287 286 288 288 288 288 289 289 290 291 290 290 289 290 290 290 291 291 289 291 292
284 287 288 288 289 289 290 291 291 292 292 292 292 292 292 292 291 291 292 293 291 290 287 287 287 286 285 284 284 284 283 283 283 284 285 285 285 285 286 286 286 286 286 286 285 286 285 285 285 286 286 286 286 286 286 287 287 287 286 286 285 285 285 285 285 287 286 286 286 287 287 288 288 287 288 289 288 289 288 289 289 289 289 289 290 290 291
276 278 283 286 282 281 286 289 290 290 291 291 290 290 290 290 290 290 289 288 288 288 287 287 286 285 284 283 283 283 283 283 283 284 285 284 285 285 285 286 285 286 286 285 285 285 284 284 285 285 284 284 285 286 285 285 285 286 285 284 283 283 283 283 284 284 285 284 285 285 285 285 287 289 288 290 289 288 288 290 289 289 289 288 290 288 288
275 279 284 283 285 285 286 287 289 289 290 290 289 288 288 288 288 288 287 286 286 286 285 285 285 284 284 283 283 283 282 282 283 284 285 285 284 284 284 285 285 285 284 286 284 284 283 284 284 284 284 284 284 285 285 284 284 284 284 284 282 281 283 283 283 284 283 284 284 284 285 285 286 285 286 288 289 289 289 289 289 289 289 289 288 288 288
283 285 285 284 284 284 284 285 286 287 288 288 287 287 288 288 288 288 287 286 284 283 283 283 284 284 283 282 283 282 281 282 283 283 283 284 284 284 284 285 284 284 284 284 283 283 283 283 283 283 283 283 283 284 284 284 283 282 283 283 282 282 281 281 283 283 282 282 284 284 284 285 284 284 283 283 286 288 289 288 289 289 288 288 288 288 288
284 286 286 285 285 285 284 284 284 285 286 287 285 285 285 285 285 286 285 283 283 284 283 283 283 283 283 282 281 282 282 282 284 284 285 285 283 284 283 283 283 283 283 282 282 282 281 282 282 282 282 283 283 284 284 283 283 282 282 282 281 281 281 281 282 282 282 284 284 284 284 284 284 284 283 283 283 284 287 288 288 288 288 288 288 288 288
287 286 287 288 287 286 285 285 285 284 284 285 285 285 287 289 286 286 284 284 283 283 283 282 282 283 282 282 281 281 282 283 285 285 283 283 283 283 283 283 283 283 282 282 282 282 281 282 282 281 282 283 283 284 284 283 282 282 282 281 281 282 282 281 281 283 283 283 283 283 283 283 283 283 283 283 282 282 282 284 285 287 288 288 288 288 288
287 288 287 285 284 283 284 284 282 283 283 283 283 283 284 285 287 285 283 283 283 282 283 282 282 281 281 281 283 283 284 283 282 282 281 282 283 283 283 283 283 283 283 282 282 283 283 283 281 281 282 283 282 284 284 283 282 282 281 281 281 282 282 283 282 282 282 282 282 282 283 283 282 283 283 282 282 282 282 282 283 283 283 285 287 288 287
287 287 288 283 281 281 283 284 284 283 283 283 283 283 282 283 283 283 283 282 283 283 282 281 282 281 281 281 282 281 282 282 283 281 282 282 282 281 281 282 282 282 282 281 282 282 282 281 281 281 281 283 282 283 283 282 281 282 281 282 282 282 281 281 283 282 282 283 282 282 282 282 282 283 281 281 282 283 283 283 282 282 283 284 284 286 287
283 284 284 285 284 283 283 282 283 283 283 284 284 283 283 283 281 283 282 282 282 282 282 281 281 281 282 280 281 281 281 281 281 281 281 282 282 281 281 281 281 281 281 281 282 281 281 281 282 281 282 282 281 281 282 283 282 282 282 282 281 281 281 282 283 282 282 282 281 282 282 281 281 281 282 283 284 284 285 285 284 284 283 283 284 285 287
282 282 283 282 283 283 284 282 283 282 283 283 283 282 282 283 281 281 281 281 281 282 281 280 280 280 280 280 280 282 282 282 282 281 280 281 281 281 281 281 281 281 280 282 283 280 282 282 281 282 283 282 282 282 282 282 282 282 282 282 282 283 283 283 282 282 282 282 281 281 281 281 282 282 283 284 284 284 285 284 284 283 283 284 285 284 284
282 282 282 282 282 282 283 282 282 282 282 282 281 281 280 281 281 281 281 281 281 280 280 280 279 279 279 279 279 279 280 281 281 281 280 280 281 281 280 280 282 281 281 282 282 281 282 282 282 282 283 283 284 285 285 285 285 285 284 284 284 285 286 284 283 283 282 282 282 280 281 281 283 283 283 283 284 284 284 285 284 284 285 285 285 285 285
282 282 282 281 281 281 281 281 282 282 281 281 281 281 281 281 280 280 280 280 280 280 279 279 279 279 279 278 279 279 280 280 280 279 279 280 280 280 280 280 279 281 281 283 283 282 283 283 283 283 283 285 286 287 287 287 288 289 289 288 285 284 284 284 283 282 283 281 281 280 280 282 283 283 283 283 283 284 284 284 284 285 285 285 285 286 287
283 282 280 280 280 280 281 280 282 281 281 281 281 282 281 280 281 282 280 281 280 280 280 280 279 278 278 278 278 279 279 279 278 277 278 278 279 280 278 277 278 279 281 283 283 283 284 285 284 282 282 284 285 286 287 288 288 289 289 287 286 286 286 286 286 284 283 281 281 281 281 282 283 283 283 283 284 284 285 285 285 285 285 285 285 286 286
285 284 284 283 283 282 282 281 281 282 281 282 280 280 281 281 281 281 280 280 281 280 280 280 280 279 278 278 276 274 274 274 275 275 275 276 277 277 275 275 277 279 281 283 284 283 282 282 281 281 283 284 287 287 287 285 286 286 287 288 288 288 289 288 286 284 282 282 280 281 283 283 283 283 283 284 285 285 285 285 285 285 285 285 285 286 286
285 285 284 283 282 282 283 283 282 281 282 282 282 281 281 281 281 282 281 282 282 282 281 280 279 278 276 273 271 271 270 273 272 272 273 272 272 272 273 277 281 282 283 283 281 281 281 281 281 281 282 285 288 290 288 285 284 284 284 287 289 289 290 289 287 285 282 282 280 281 282 284 284 284 285 285 285 285 285 285 285 285 284 284 285 285 285
286 286 286 285 283 283 283 282 282 283 283 283 283 283 282 281 281 281 281 282 281 281 280 279 277 275 273 270 268 266 267 266 264 265 266 267 267 267 274 278 279 279 277 278 279 280 280 281 284 284 286 287 285 286 285 283 284 285 286 286 289 291 291 290 288 284 282 280 280 281 282 283 284 285 285 285 286 286 285 285 285 285 285 285 285 285 285
288 288 287 287 286 284 282 282 282 283 283 283 283 283 282 281 281 282 281 281 281 281 280 278 275 272 270 269 267 263 264 266 267 267 266 263 266 273 276 277 278 278 278 279 277 276 280 282 284 284 285 286 286 287 285 285 286 285 283 284 287 289 290 289 286 283 282 281 281 282 281 284 284 285 285 285 285 286 285 285 285 285 285 285 285 285 285
287 288 286 284 283 282 282 283 283 284 283 283 283 282 283 282 281 281 281 281 281 280 279 278 277 274 271 268 266 266 268 265 264 266 266 268 270 275 276 277 279 277 276 277 273 277 282 283 285 285 285 285 286 288 288 288 287 285 284 285 285 287 287 287 286 284 282 281 281 282 283 283 284 284 284 285 285 285 285 285 285 285 285 285 285 285 285
284 284 284 284 283 284 285 285 284 283 284 285 284 283 282 283 282 281 281 281 280 279 278 277 275 274 275 276 277 276 275 270 267 268 269 270 272 276 278 279 280 280 280 275 273 279 282 286 287 287 285 287 289 288 285 284 284 284 283 283 284 285 286 287 287 285 283 283 283 282 283 283 284 284 284 285 285 285 285 285 285 285 285 285 285 285 285
283 283 284 284 285 284 284 284 283 283 283 284 285 285 283 283 282 282 281 280 280 279 279 278 277 277 277 277 277 277 278 277 275 271 273 273 275 275 276 279 279 279 278 280 279 280 283 285 286 287 287 288 286 285 284 283 282 283 283 282 284 286 287 287 287 287 285 284 282 283 283 283 284 284 284 285 285 284 284 284 285 285 285 285 285 285 285
284 283 283 283 283 283 283 282 282 283 283 283 283 283 283 284 282 281 281 281 281 280 279 278 278 278 278 278 278 279 278 278 278 277 276 276 277 276 277 278 280 279 280 280 280 281 283 284 285 286 285 284 283 282 283 283 284 283 283 284 285 286 287 287 287 287 286 284 283 283 284 284 284 284 285 285 285 284 283 283 283 283 283 283 284 285 285
284 283 282 282 282 283 283 282 282 283 284 282 282 281 282 282 283 283 283 282 281 281 280 279 279 279 279 278 278 278 278 278 278 278 278 279 279 277 275 279 282 280 281 282 283 283 283 283 285 286 285 282 282 282 283 284 285 285 286 286 285 285 286 286 286 286 285 283 282 282 283 284 284 284 284 284 284 284 284 283 282 282 282 282 282 283 284
283 284 283 283 283 283 283 283 284 283 283 283 283 282 282 282 283 282 282 280 281 281 280 280 280 280 280 278 278 278 279 278 278 278 278 279 280 280 281 281 280 280 282 283 284 284 284 285 286 285 283 282 281 283 283 284 284 284 286 286 285 284 283 284 283 283 281 282 283 283 283 283 284 284 284 282 281 282 282 283 283 283 284 283 283 284 284
282 283 282 283 283 284 285 285 283 283 284 284 284 283 283 284 283 283 282 282 281 281 281 281 281 280 280 278 277 278 279 278 280 279 278 278 279 281 281 281 282 282 282 283 283 283 284 284 283 283 283 283 282 283 283 284 285 284 284 284 284 284 283 282 280 280 281 281 282 282 282 283 283 284 284 281 279 280 282 283 283 284 284 284 283 283 283
283 283 283 283 283 283 284 283 284 285 285 283 283 284 285 285 284 283 283 282 282 282 281 282 281 281 280 279 279 279 279 279 280 280 278 279 280 280 281 282 283 282 282 283 283 284 284 284 284 283 283 283 282 282 280 281 282 282 281 281 282 283 282 281 281 280 281 281 281 281 281 282 282 282 282 281 282 282 283 283 283 283 282 282 282 282 282
282 283 282 284 283 284 284 284 284 284 283 283 284 284 285 285 285 283 282 283 283 283 283 283 283 282 282 281 281 280 279 278 278 281 282 282 281 281 280 282 282 282 283 283 282 283 283 284 283 283 283 282 282 282 281 279 280 279 280 280 281 282 281 280 280 279 280 280 280 281 282 281 281 281 281 281 281 283 283 284 284 284 283 283 283 282 281
282 283 282 283 283 283 283 283 283 283 283 284 283 284 285 285 286 285 283 283 284 284 283 283 283 283 282 282 282 281 281 279 279 279 280 280 280 281 281 283 282 283 283 283 282 283 283 283 283 283 283 283 282 282 280 280 280 280 280 280 281 281 282 281 280 280 281 280 280 280 281 280 279 280 281 281 281 281 282 283 283 284 283 284 284 283 282
282 283 283 282 283 283 283 283 283 282 282 284 284 284 284 284 283 284 283 284 285 284 283 283 283 284 284 283 283 283 283 282 279 281 280 280 280 280 281 281 282 283 283 283 283 283 283 283 283 283 283 282 282 281 280 280 280 280 280 281 281 283 283 281 281 281 281 280 280 281 279 279 279 280 280 279 280 282 282 283 284 283 283 283 283 282 280
282 283 284 283 282 282 283 283 283 282 282 283 283 283 284 284 284 284 283 283 283 283 283 283 284 284 284 284 284 284 283 282 283 283 281 282 282 282 282 282 283 283 282 282 283 282 282 283 283 283 283 283 281 281 281 280 280 280 280 280 281 282 281 282 281 280 281 281 280 280 280 280 279 280 280 278 279 281 282 283 284 284 284 284 283 281 280
283 282 282 283 283 283 283 282 281 281 282 281 282 283 282 282 283 285 283 282 284 285 282 282 283 283 283 283 283 284 284 283 282 281 280 282 283 283 282 282 282 282 283 283 283 282 282 282 282 282 282 282 281 280 280 280 281 280 279 279 279 278 278 279 281 281 281 281 280 280 279 279 279 279 279 278 278 279 280 281 283 284 284 283 282 281 281
283 283 283 283 282 282 282 282 282 280 280 281 282 282 282 283 284 284 283 282 282 283 283 283 282 282 283 283 282 282 283 283 282 282 281 281 282 282 282 282 282 283 282 282 282 283 280 281 280 281 282 282 280 280 279 280 280 280 279 278 279 278 278 279 279 280 281 280 280 280 280 279 279 279 278 278 278 278 280 282 282 283 282 282 281 280 279
283 283 283 283 283 282 282 282 282 282 282 282 281 281 282 283 283 282 281 283 283 284 284 283 283 283 283 283 283 283 282 282 282 281 282 282 281 282 282 282 282 281 282 282 282 283 281 280 281 282 282 280 280 279 281 281 280 279 279 279 279 276 278 279 279 279 279 280 280 279 279 279 279 279 278 278 278 280 279 280 282 282 283 282 281 278 276
Wind_Speed
5 6 6 5 5 4 3 6 7 9 11 3 6 2 3 3 1 7 6 7 8 7 7 8 7 8 9 9 9 8 7 8 10 12 14 13 12 11 13 11 9 10 11 10 11 11 10 9 8 6 6 6 5 4 3 3 3 5 7 6 3 4 4 8 9 8 9 8 10 11 11 9 8 9 9 9 8 8 8 7 7 7 5 4 4 4 4
9 10 9 7 7 3 7 9 8 9 9 6 6 6 2 7 4 8 12 10 8 5 5 6 6 7 9 8 6 7 10 10 9 13 14 12 11 12 11 11 10 9 10 11 12 11 12 10 8 7 5 6 6 6 6 4 4 4 7 8 7 4 3 1 3 4 5 5 7 8 9 8 8 7 7 6 5 4 5 6 5 4 5 4 5 5 5
6 6 5 8 9 4 6 7 10 10 8 6 6 6 7 16 12 10 11 11 6 4 4 7 8 8 8 9 11 10 8 8 9 12 11 10 10 10 10 11 10 11 11 11 12 13 12 12 10 9 8 7 6 7 7 7 7 5 5 6 5 5 5 4 4 4 4 3 4 6 6 6 5 5 6 6 6 5 4 4 5 5 5 5 5 5 7
2 5 6 6 6 4 4 8 13 13 9 5 3 2 2 2 11 10 11 7 3 4 6 7 6 10 12 11 10 9 8 8 8 12 11 10 9 10 10 10 10 12 13 12 13 12 13 13 13 11 10 11 10 8 7 7 7 7 7 6 5 3 3 4 4 4 3 3 4 4 4 4 4 4 4 4 5 5 5 5 4 4 6 6 6 6 5
0 1 3 4 4 3 4 6 9 10 5 1 1 3 6 3 9 15 11 6 5 9 6 11 9 11 12 11 9 10 10 9 7 11 11 11 11 10 9 12 12 11 11 10 12 13 13 13 14 13 10 12 11 10 10 9 9 9 8 7 6 6 5 5 5 3 2 2 2 3 3 4 3 3 4 4 4 5 7 5 3 4 4 4 5 4 5
3 0 1 1 3 3 2 2 3 4 2 2 5 4 5 6 6 2 6 9 9 8 7 11 10 11 9 8 5 6 8 6 6 10 10 9 8 9 10 10 10 9 9 9 11 13 13 12 12 11 11 12 10 10 10 10 11 10 11 10 9 8 7 6 6 5 4 4 3 4 5 5 4 2 2 1 1 2 2 2 3 2 2 5 5 6 7
4 1 2 4 0 2 1 1 3 4 7 10 11 10 9 8 12 14 13 10 9 9 9 10 12 12 10 9 8 7 7 5 7 9 8 8 8 9 8 10 9 10 10 10 12 12 12 11 10 11 12 11 10 12 11 11 10 11 12 12 12 10 10 7 5 5 5 4 4 5 5 4 3 3 6 6 4 3 0 3 4 1 4 4 4 4 4
3 2 1 2 2 0 3 3 3 3 1 2 4 11 9 7 5 12 14 12 8 7 9 9 8 10 11 10 9 7 7 5 4 8 9 8 9 9 7 9 9 9 9 9 10 10 8 10 10 11 11 11 12 11 11 12 11 11 13 14 13 12 13 12 11 9 6 5 6 5 5 4 3 2 5 2 3 1 1 2 6 7 3 3 3 2 4
4 2 3 2 0 2 2 4 2 3 2 3 2 4 2 4 2 5 14 15 11 10 8 9 8 8 9 10 6 6 5 5 6 7 8 8 8 7 8 8 8 7 7 9 9 9 10 11 10 10 9 11 12 13 14 12 11 12 13 13 12 12 13 12 12 11 11 11 10 9 9 8 5 2 2 1 2 2 2 3 2 2 5 5 1 5 4
3 5 4 2 1 3 3 1 1 1 1 2 1 2 3 2 5 6 14 13 11 10 8 9 9 5 10 8 5 5 4 5 6 6 6 6 6 7 7 7 7 7 7 8 9 9 10 12 10 8 9 10 11 12 13 13 13 12 12 11 9 11 11 10 9 9 10 10 10 10 10 10 9 8 6 2 1 2 2 2 2 4 3 1 2 6 6
3 2 5 2 3 0 1 1 3 4 2 1 1 4 1 1 6 4 9 13 10 12 11 8 2 2 6 4 3 0 2 4 5 7 6 6 6 7 7 8 8 7 7 8 8 9 10 11 9 9 9 12 12 12 12 11 12 12 11 10 10 9 9 8 9 8 7 9 9 9 9 8 7 8 8 7 4 3 2 1 2 1 1 2 2 2 4
2 3 3 2 0 1 0 2 4 5 2 0 2 4 4 5 7 5 7 12 12 8 5 3 2 5 10 7 5 4 2 2 3 4 5 6 6 7 8 8 6 5 4 8 10 11 11 9 7 9 9 11 12 11 10 10 12 10 9 8 7 7 7 8 8 9 7 8 8 8 7 6 7 6 5 6 8 7 6 4 3 2 1 3 4 4 3
4 5 1 2 2 2 2 4 8 8 2 2 3 5 2 5 7 6 6 9 7 6 4 2 3 1 5 9 8 5 2 5 7 7 7 7 8 7 6 5 5 7 8 9 10 9 6 5 5 6 8 10 10 8 8 9 10 8 7 7 7 7 7 8 8 9 8 8 9 8 6 5 5 7 7 7 7 7 7 7 6 6 5 4 4 4 3
2 1 4 3 1 0 3 4 7 5 1 3 4 1 0 7 9 8 8 8 5 4 4 5 7 8 9 9 7 6 6 5 4 5 6 8 8 6 5 5 5 7 7 8 9 9 9 9 9 8 9 11 8 8 9 10 8 6 7 8 8 9 9 9 9 9 10 9 9 8 8 8 9 9 7 7 7 6 7 6 7 7 6 4 3 5 4
2 2 3 2 1 2 7 10 4 3 1 1 2 4 6 8 10 10 7 6 7 10 8 6 10 11 10 9 9 7 5 6 7 7 8 8 7 6 6 7 5 6 8 9 9 8 8 9 8 8 11 12 10 9 12 9 6 6 6 7 8 8 9 9 9 10 9 11 10 8 9 9 9 9 8 8 8 8 8 8 7 8 8 8 7 6 5
2 2 1 1 2 7 10 0 2 2 2 1 2 8 8 7 9 9 8 6 3 8 13 11 10 10 11 8 7 6 5 5 6 6 6 6 6 6 5 4 4 8 9 9 9 9 8 9 9 8 10 10 10 11 10 6 6 7 8 8 9 9 9 8 8 8 8 8 8 8 9 9 9 9 9 8 7 8 7 7 7 7 8 8 8 8 8
1 1 1 1 2 3 5 6 6 5 8 5 6 10 8 9 6 5 10 8 6 6 12 11 10 9 6 6 5 7 5 5 6 6 5 5 6 5 6 6 8 9 10 10 10 10 8 8 8 7 7 9 9 9 5 5 7 7 7 8 8 8 8 9 9 8 8 8 8 8 8 9 9 9 9 9 9 8 8 8 8 7 7 7 7 7 8
7 9 4 2 3 5 8 8 7 9 8 5 9 12 11 8 8 6 10 9 8 6 6 11 7 6 6 7 5 5 5 6 4 4 5 6 5 6 7 8 8 8 9 9 10 9 8 7 7 6 7 7 9 3 3 4 4 4 5 6 7 6 6 6 6 6 8 9 9 9 9 8 8 7 7 8 7 5 6 7 7 7 7 7 7 7 7
2 4 5 6 6 5 7 10 10 10 9 8 9 12 10 9 9 9 9 9 8 7 8 10 9 7 5 7 4 4 5 6 6 6 6 5 5 6 7 5 6 7 8 8 7 7 7 5 5 6 6 6 4 4 5 5 5 6 7 8 7 7 7 6 4 4 5 5 5 6 6 6 5 5 6 6 7 7 7 6 6 5 5 5 6 7 6
4 4 1 4 6 7 6 5 7 9 9 10 10 9 9 9 9 8 8 9 9 7 8 7 9 7 5 8 5 5 5 5 5 5 5 6 7 5 5 5 7 6 7 6 5 6 5 3 4 4 5 5 4 4 4 4 4 6 6 6 6 6 6 6 6 6 6 7 7 5 5 4 5 5 5 4 5 5 5 6 6 7 6 6 4 5 7
7 7 4 6 9 9 7 7 7 6 7 9 9 9 9 9 11 9 8 7 6 6 7 6 8 8 4 5 6 6 4 5 5 5 6 5 5 5 7 4 5 6 5 5 5 5 4 3 4 4 4 4 3 4 3 3 3 5 4 4 4 4 4 5 6 5 6 6 6 6 7 7 6 3 4 4 3 3 2 0 2 4 6 6 6 3 4
3 4 6 6 6 3 2 4 5 6 6 9 9 8 9 9 9 8 10 7 5 5 4 8 8 8 4 4 5 5 4 5 5 5 5 5 6 5 4 4 5 5 4 4 5 5 3 2 3 4 4 3 3 3 3 3 3 4 4 3 4 3 3 4 4 5 5 5 4 5 5 5 6 8 7 6 4 3 5 7 9 6 5 6 5 3 4
3 3 4 2 5 6 2 2 3 5 5 8 9 9 8 6 7 8 10 8 7 6 4 3 9 6 6 4 5 5 4 3 3 5 6 6 4 4 4 5 5 5 5 4 5 5 3 3 3 3 3 3 3 3 2 2 2 3 3 3 3 4 4 4 4 4 4 5 5 5 4 5 5 4 7 10 7 4 4 8 9 10 9 7 6 6 4
2 3 4 2 4 7 2 1 3 4 4 8 7 5 6 7 7 7 8 8 9 4 4 3 3 7 5 4 6 5 3 2 4 3 3 4 5 4 4 5 4 5 5 5 5 4 2 3 3 2 3 2 1 2 2 2 2 3 3 4 4 3 3 3 3 4 3 3 4 5 5 4 3 4 5 6 10 12 9 8 12 11 7 8 7 9 8
5 3 3 3 6 6 3 4 4 3 3 7 7 6 6 6 4 6 8 5 6 9 6 5 1 2 6 2 4 6 5 2 2 4 4 4 3 4 4 4 5 5 4 4 3 3 3 3 2 2 3 2 1 2 2 2 3 3 3 4 4 3 3 3 3 4 4 5 5 5 5 5 5 5 5 5 6 10 15 11 7 7 9 8 8 10 11
8 8 8 7 6 5 4 6 5 4 3 4 4 1 1 5 6 5 6 7 5 5 7 5 4 1 3 6 4 4 4 4 3 4 4 4 3 3 3 4 4 4 3 3 3 3 2 1 1 2 2 2 2 2 2 3 3 3 3 3 2 2 2 2 3 4 5 4 4 5 5 4 5 5 5 5 6 6 8 12 16 12 10 13 13 12 11
7 8 12 11 7 3 1 6 4 1 2 2 6 4 4 4 5 5 3 3 4 5 7 6 5 4 4 4 5 4 7 3 2 2 3 3 2 1 1 2 3 4 4 3 3 1 1 0 1 2 2 2 2 2 2 3 3 4 4 4 3 4 4 3 4 4 4 3 4 4 5 5 5 5 5 5 4 5 6 7 8 9 11 12 13 14 12
8 5 7 8 5 4 2 2 6 5 4 7 6 6 4 4 5 5 5 4 3 1 2 4 6 6 5 4 7 4 3 4 4 2 3 2 0 1 3 4 3 3 3 3 1 0 0 1 2 2 3 3 2 3 3 3 3 4 4 3 4 4 3 3 3 3 3 4 5 5 5 5 5 5 5 5 6 5 5 5 5 7 9 9 9 10 14
4 3 3 5 6 4 4 3 4 4 3 1 4 7 7 6 4 6 5 5 4 2 3 1 1 4 7 4 5 6 4 4 4 4 3 1 2 2 2 3 3 2 3 2 1 1 2 3 4 4 3 3 3 2 2 2 2 3 3 3 3 3 3 2 2 3 3 3 3 4 4 4 4 5 5 5 4 5 5 5 6 7 6 8 9 10 9
1 2 6 6 7 8 8 5 6 5 5 4 5 3 3 8 5 3 3 2 2 4 1 2 3 3 4 5 4 7 7 6 5 4 3 2 1 1 2 2 3 2 2 2 1 2 3 4 3 3 4 4 4 4 2 2 3 2 2 1 1 1 1 1 1 2 2 2 2 3 3 3 4 4 5 6 6 5 6 6 7 7 8 7 6 6 7
1 2 6 6 6 5 7 6 4 3 2 1 2 5 3 4 5 4 3 2 2 2 1 3 3 3 2 4 3 1 2 3 3 3 3 1 0 0 1 3 3 4 3 1 1 1 2 2 2 3 4 4 4 3 3 3 2 2 2 1 1 0 1 1 1 1 1 1 2 3 4 4 4 4 4 5 5 5 5 6 6 6 6 6 6 6 6
6 5 7 5 5 5 3 3 4 4 3 2 4 5 5 6 5 4 2 3 5 5 5 4 4 5 4 3 3 4 4 3 3 2 2 1 0 1 0 1 2 4 2 1 1 0 0 1 3 3 3 3 4 4 3 3 2 3 3 3 2 1 1 3 3 2 2 1 2 5 4 5 5 5 5 6 7 7 6 5 6 6 6 6 7 6 7
8 5 4 4 4 4 4 4 5 4 4 5 6 5 4 3 5 5 4 4 4 3 5 5 4 4 3 3 3 4 3 3 2 1 2 2 2 1 1 0 1 2 1 2 2 1 0 1 2 3 3 3 3 3 3 2 1 1 1 1 1 0 3 3 4 3 2 2 3 4 4 4 4 5 5 5 5 5 5 5 5 6 6 6 6 6 6
11 8 10 9 9 8 6 5 5 5 3 1 2 3 3 3 4 4 4 4 4 4 4 5 5 4 4 4 4 4 4 4 2 2 4 3 2 1 1 1 1 2 2 1 0 0 1 2 2 3 3 3 3 3 2 1 0 0 0 1 1 3 3 2 2 2 2 2 3 3 4 4 5 5 4 4 4 5 5 5 5 5 6 6 6 6 8
1 1 4 4 3 5 5 6 6 5 5 5 3 3 2 2 3 5 5 6 6 7 5 4 4 4 3 2 2 3 5 5 6 5 5 4 3 2 2 2 1 0 0 1 1 2 2 2 2 3 3 4 4 2 1 1 1 1 1 0 1 3 2 2 3 2 1 1 2 3 3 4 5 4 4 4 4 5 5 5 5 5 5 6 6 6 7
4 4 3 3 3 4 4 4 5 6 7 6 6 6 4 4 4 4 5 5 3 3 5 4 4 3 2 2 2 3 5 6 4 4 3 3 3 1 1 0 1 1 0 2 3 3 3 2 4 4 4 4 3 3 1 0 1 0 0 2 0 2 1 1 1 2 2 2 3 3 4 3 3 3 4 4 4 5 5 5 5 5 5 5 5 6 6
5 8 6 5 4 4 4 4 4 5 5 6 5 4 3 4 6 5 4 3 4 5 6 5 4 4 5 6 6 5 4 4 5 5 5 2 1 0 1 1 0 1 0 1 3 2 2 3 5 5 3 3 2 2 1 2 3 3 1 1 1 0 1 1 0 1 1 1 2 4 4 3 2 2 3 4 4 4 4 5 5 5 5 5 6 6 6
5 7 7 5 4 4 4 4 3 4 4 2 2 3 5 5 4 4 5 5 6 6 6 6 6 6 4 2 2 4 4 4 4 4 3 2 1 2 2 1 3 2 2 4 2 2 3 3 5 3 3 3 2 0 0 1 1 0 1 1 2 1 1 1 1 2 3 3 3 4 4 3 2 3 3 4 3 4 4 4 5 5 5 5 5 6 6
3 3 4 3 3 3 2 1 2 2 5 7 6 3 3 4 5 4 5 5 4 4 5 4 2 3 4 4 4 4 4 4 4 4 4 4 2 4 6 6 6 6 6 2 1 3 3 3 1 1 2 2 0 1 2 3 4 2 0 1 1 2 2 2 2 2 2 3 4 3 4 3 2 2 2 3 3 3 4 5 4 5 5 5 5 6 6
2 1 1 3 5 5 4 4 4 5 5 4 6 5 5 5 5 5 4 4 4 4 5 4 4 5 4 4 4 5 5 4 4 4 5 3 3 2 4 6 7 7 6 5 4 4 3 3 2 2 3 1 1 2 2 3 3 3 3 2 3 4 4 3 2 3 3 4 4 4 4 3 2 2 1 2 2 2 3 3 4 4 4 4 5 5 5
0 0 0 1 3 1 1 2 4 5 5 5 5 4 4 6 5 4 5 6 5 5 4 5 6 4 5 6 6 7 3 3 4 4 3 3 2 3 4 7 5 4 5 5 4 4 3 2 1 2 3 0 0 1 2 3 2 2 2 2 1 3 4 3 4 4 4 5 5 5 4 4 3 3 1 0 1 1 3 3 3 3 3 4 4 4 5
3 3 3 3 2 2 1 1 1 1 3 4 4 4 4 5 8 9 8 6 5 6 6 5 7 7 4 4 4 2 2 3 3 4 6 8 7 5 4 7 5 4 6 6 5 5 3 3 2 3 3 2 1 2 3 2 2 2 2 2 2 2 2 1 1 0 0 3 5 5 5 4 4 4 3 1 2 0 3 3 3 3 3 3 3 3 4
1 1 2 3 3 3 2 1 2 1 2 4 3 4 4 5 5 3 3 4 5 6 6 6 6 5 3 3 3 4 4 2 3 4 4 6 5 5 8 7 2 2 5 5 5 5 5 4 3 4 4 3 2 3 1 1 1 1 1 2 2 2 2 1 1 1 1 4 5 5 5 5 4 4 4 3 2 1 2 3 3 2 2 3 3 3 4
4 3 3 3 3 4 3 3 3 2 1 4 4 2 3 4 5 6 6 6 5 5 7 6 6 5 5 4 3 4 5 3 5 5 5 5 5 6 7 7 7 4 6 5 5 6 5 5 4 5 5 5 5 4 2 0 1 1 0 0 0 1 1 0 0 0 1 2 5 5 5 5 5 5 5 3 3 2 3 4 3 3 2 2 2 3 3
4 4 4 4 3 2 3 3 3 5 5 3 2 2 3 4 4 4 5 5 6 7 6 6 6 6 6 5 6 7 7 6 6 6 4 5 4 7 4 9 9 6 6 7 6 6 6 5 5 6 5 6 6 5 2 2 0 0 1 2 2 0 1 1 1 1 0 1 3 4 3 5 5 5 5 4 4 3 1 3 4 3 3 2 2 2 3
4 4 4 3 2 4 6 5 4 1 1 3 4 4 3 4 4 4 4 6 6 6 7 8 7 7 7 7 6 4 2 3 4 6 7 7 7 6 2 6 6 6 8 8 5 6 6 7 7 7 7 7 6 4 4 3 2 2 2 3 3 2 2 3 2 2 2 2 3 4 5 5 5 5 5 5 3 3 3 2 3 1 1 2 3 2 2
4 2 2 4 4 4 4 2 1 2 1 0 2 5 5 4 5 4 5 5 5 5 4 4 5 7 5 5 6 5 5 5 6 5 7 6 5 3 2 4 5 7 7 6 6 6 6 6 6 8 8 8 6 4 4 4 3 3 3 3 3 3 3 3 3 3 4 3 2 2 3 3 4 4 4 4 3 3 3 3 3 4 2 1 2 2 2
3 4 4 3 4 3 2 0 1 3 4 5 5 6 5 3 3 4 4 4 4 4 4 4 6 6 6 6 6 5 5 5 4 7 4 6 5 3 3 5 6 7 7 6 6 6 7 7 8 8 7 6 5 4 4 3 2 3 3 4 4 5 6 4 4 3 3 3 4 4 3 3 3 4 4 5 4 5 3 3 3 2 2 3 3 3 3
3 4 4 2 2 2 2 1 1 2 5 5 4 6 5 4 4 4 4 4 4 3 4 4 5 5 5 5 6 6 6 5 7 6 3 5 5 6 5 5 6 8 6 5 5 5 6 7 7 7 6 5 4 5 4 3 3 3 4 5 6 6 6 5 5 5 5 5 5 5 5 4 4 5 5 4 4 3 3 4 3 3 3 2 2 3 3
3 3 4 4 4 4 4 3 3 5 5 3 5 6 3 2 2 5 4 5 6 5 3 3 3 3 4 5 6 6 6 6 7 4 3 5 5 4 5 5 5 6 6 6 4 4 5 6 6 5 5 3 4 4 4 3 2 3 3 5 4 4 4 3 4 5 5 5 5 5 5 5 4 4 4 4 4 3 3 2 2 4 4 4 3 2 3
2 2 4 4 4 4 3 3 3 3 3 4 4 3 2 4 7 5 4 3 2 2 4 4 4 5 5 4 3 4 5 5 5 5 6 5 5 5 5 5 5 5 5 5 5 5 4 4 4 4 4 4 4 4 3 3 3 3 3 4 4 3 3 3 4 6 6 5 5 5 5 4 4 4 5 4 4 4 3 4 3 3 3 4 3 3 3
3 4 5 4 4 4 3 3 3 3 3 3 2 3 5 6 6 4 3 4 6 6 6 4 5 6 4 4 4 4 3 4 5 5 5 4 6 6 5 5 5 5 6 5 5 5 4 4 4 4 4 4 4 4 4 4 3 3 4 3 3 3 3 3 3 4 4 5 5 5 5 5 4 5 4 4 4 5 4 3 4 3 4 3 4 3 4
Wind_Direction
27 16 20 22 64 61 68 46 26 360 336 3 98 144 165 128 143 171 158 127 114 107 71 61 56 68 71 62 56 52 66 64 66 63 59 52 43 41 44 36 30 34 34 26 24 23 22 28 40 56 69 77 76 67 58 66 90 113 117 132 167 145 115 154 155 153 149 157 160 163 175 181 190 180 179 185 187 179 180 186 189 183 164 159 162 184 189
33 16 25 28 55 56 44 33 23 14 22 11 88 98 148 118 124 134 130 106 74 55 53 71 69 75 81 75 58 55 53 57 59 69 66 53 49 46 45 41 37 36 35 34 28 25 23 23 22 29 56 69 70 70 55 53 67 104 128 150 162 161 114 101 118 135 146 154 166 165 168 178 183 180 174 174 183 194 197 193 180 158 150 158 171 179 180
13 5 30 39 28 6 68 20 21 20 12 40 36 93 94 89 77 84 97 96 87 41 74 97 89 76 86 69 58 56 49 53 64 73 65 58 54 50 45 38 34 34 34 32 30 29 25 25 25 28 30 48 62 64 64 59 53 48 87 119 143 152 135 139 137 136 139 144 146 155 163 161 169 171 175 174 181 196 197 192 177 165 154 163 181 183 182
9 344 2 9 4 354 66 26 7 360 4 26 348 7 315 126 136 122 105 105 146 105 89 93 82 86 73 71 57 48 36 38 59 71 70 63 53 47 41 38 33 38 34 30 31 31 30 29 32 31 36 39 39 45 61 71 72 65 67 73 82 89 105 111 110 104 105 152 146 122 126 139 156 174 168 170 179 190 185 187 192 160 171 185 183 183 183
143 320 3 1 359 36 24 4 341 327 306 281 30 37 29 34 137 135 160 174 112 129 127 95 67 77 77 65 65 70 44 15 28 63 66 68 63 50 41 41 36 32 28 27 37 38 37 33 37 29 38 53 49 48 48 49 57 57 57 62 65 59 50 57 55 67 88 106 111 135 141 144 134 142 157 166 176 177 197 195 145 167 190 182 191 182 182
152 313 6 345 69 139 228 318 290 307 280 330 50 19 2 26 42 66 73 106 118 119 113 105 105 87 75 81 66 76 107 88 47 61 57 50 53 54 49 47 46 36 34 33 38 40 41 37 34 26 33 46 49 51 54 51 59 61 61 49 45 43 49 57 58 48 56 60 35 17 18 22 27 44 73 157 195 182 153 120 145 162 185 198 193 187 193
147 129 62 55 30 234 145 280 333 346 66 80 84 60 54 78 103 97 89 88 97 109 110 107 108 108 96 68 58 37 18 41 82 83 75 56 47 55 53 53 49 46 38 39 40 38 33 32 33 35 34 30 38 42 43 48 46 58 60 57 49 44 38 35 57 77 62 60 74 85 84 81 68 45 44 22 25 355 170 137 99 154 195 208 217 213 210
64 75 62 141 236 297 318 315 319 314 95 51 52 62 38 41 64 108 103 98 89 93 100 99 100 101 101 83 56 41 39 25 51 81 76 66 59 51 46 59 55 54 47 46 44 41 33 33 34 39 38 31 39 37 38 42 41 47 56 56 49 43 41 35 32 26 33 51 59 69 91 98 88 76 97 193 253 186 96 103 164 204 264 254 206 100 45
134 135 65 55 163 81 340 353 3 28 3 10 25 98 36 42 29 104 118 121 123 118 114 113 120 120 96 76 50 44 55 52 55 67 76 80 79 77 64 60 55 48 48 53 48 46 42 35 31 31 41 44 42 41 39 31 34 40 47 49 44 46 46 37 33 31 35 43 44 43 47 49 42 66 103 143 303 307 239 177 171 149 225 227 86 102 218
111 128 94 102 283 191 213 201 286 186 215 241 212 124 54 50 80 136 123 126 131 124 126 134 146 171 79 61 38 0 32 57 72 67 75 73 73 72 78 72 70 55 51 60 58 55 50 42 30 24 35 51 48 47 43 36 32 33 41 43 39 44 46 41 37 35 38 42 44 42 44 39 34 29 17 354 266 229 208 231 179 213 259 272 157 185 202
74 85 129 161 178 245 126 276 287 301 279 204 152 67 68 259 138 153 133 129 137 139 146 148 53 66 81 111 135 128 60 45 61 75 65 68 71 68 65 69 69 60 52 59 65 64 61 55 35 28 34 48 49 45 45 42 40 33 30 31 31 36 40 38 41 36 38 44 44 43 45 38 35 32 24 16 348 341 324 243 218 194 189 232 244 223 227
73 132 94 171 190 186 320 301 306 300 293 149 62 74 256 196 154 144 143 138 140 140 126 116 65 117 128 163 180 176 150 37 24 37 55 50 50 55 61 57 60 59 46 58 55 56 56 53 48 49 45 53 54 44 38 40 42 34 19 27 24 28 28 30 34 33 30 40 42 41 36 37 37 38 24 30 22 16 8 348 319 305 251 210 222 229 213
96 95 58 24 332 303 334 325 319 312 263 130 111 187 236 152 129 123 127 131 133 139 153 166 101 353 118 137 144 145 100 65 66 63 64 69 67 71 65 66 70 65 51 53 51 43 50 63 66 59 53 55 51 45 40 45 35 19 10 21 26 26 30 33 33 31 28 32 35 35 35 32 33 39 32 28 22 24 18 11 15 357 326 309 286 271 229
64 69 113 185 201 242 324 310 313 285 85 159 218 254 187 127 114 117 133 135 140 128 119 124 102 100 98 101 107 102 94 98 86 76 77 74 69 63 71 69 68 67 62 60 55 42 27 28 32 47 62 62 53 45 43 36 15 355 7 18 25 29 32 32 32 30 27 24 28 30 26 26 31 35 27 27 28 21 16 16 19 19 12 346 305 292 304
45 36 75 49 112 217 26 324 333 19 76 241 159 111 75 110 111 118 116 120 128 119 99 94 105 103 96 101 102 102 105 103 94 87 80 77 75 67 62 57 46 69 66 53 45 38 26 31 32 35 55 54 48 44 42 24 12 24 31 35 37 39 37 36 34 31 27 26 25 23 25 25 31 31 23 25 25 22 20 18 18 15 9 3 0 344 323
130 51 68 186 270 304 318 297 133 344 308 167 133 104 99 84 109 114 103 77 85 122 117 116 100 101 105 95 104 99 94 91 88 84 83 79 75 73 69 77 64 63 65 60 59 48 44 41 40 41 57 59 48 44 28 1 20 31 38 40 40 40 36 35 35 34 32 31 31 29 25 24 31 29 25 23 26 23 18 26 19 15 9 3 4 3 349
113 127 124 10 329 313 352 58 81 60 32 42 88 86 89 102 82 102 101 101 85 93 107 101 109 106 100 116 120 110 115 97 89 87 81 80 77 68 63 50 61 70 76 75 68 54 43 46 48 49 51 65 56 47 5 10 27 32 37 42 47 45 37 28 25 20 23 28 28 28 27 26 28 22 24 20 25 12 15 23 20 15 10 6 4 348 345
82 58 53 102 64 54 62 55 63 76 71 29 74 85 87 68 84 88 106 108 107 99 98 106 89 98 118 104 94 92 88 87 82 82 62 43 43 50 58 66 73 83 78 71 71 66 44 36 42 42 45 57 62 29 0 27 34 49 53 52 50 47 43 41 32 25 28 17 19 20 21 26 27 21 17 11 17 11 26 17 10 11 4 2 357 348 335
8 62 346 47 56 44 56 76 74 73 72 68 71 78 76 81 77 77 73 85 85 91 93 98 111 115 116 105 94 95 93 84 80 76 78 64 60 74 79 92 92 79 83 78 74 74 65 31 43 41 47 43 46 27 28 18 28 36 42 40 38 33 31 32 36 40 49 30 16 20 21 18 22 22 17 15 7 3 4 9 12 9 3 358 349 338 328
69 109 128 46 46 45 38 42 75 72 73 74 71 80 87 82 73 72 77 77 71 79 85 102 109 115 116 110 108 95 93 94 86 86 87 91 79 70 87 85 91 88 87 96 94 88 83 67 68 66 57 45 29 26 19 20 33 47 44 39 38 25 16 13 15 16 19 16 24 22 22 26 20 8 13 18 11 359 347 353 353 343 341 333 324 303 320
91 95 72 84 72 49 38 59 69 80 90 86 80 80 82 85 82 75 62 70 90 86 100 101 103 96 90 112 118 107 95 83 79 85 90 82 86 86 77 70 85 99 107 97 97 90 84 79 82 73 64 50 37 38 26 23 55 68 60 41 34 23 9 11 11 5 11 12 11 11 1 1 1 1 1 345 350 316 284 215 285 288 296 288 282 280 285
139 173 170 158 111 112 85 87 95 95 95 104 103 99 96 100 104 99 93 67 58 79 101 111 104 110 114 115 108 99 98 111 120 110 98 95 90 82 82 80 81 81 77 94 89 83 72 71 80 78 65 48 30 25 26 19 50 78 71 55 41 17 7 17 7 9 11 9 5 5 4 0 353 341 340 341 332 332 313 326 325 303 244 243 261 306 290
197 236 179 163 117 104 113 93 80 107 119 114 112 111 108 93 100 113 107 100 77 72 43 80 116 122 123 123 97 91 94 120 135 136 131 121 109 102 99 76 56 60 54 68 78 72 61 63 70 71 66 38 34 18 31 28 61 83 80 63 39 9 13 8 4 10 8 1 353 352 360 0 357 357 339 334 335 331 316 323 330 333 337 301 285 290 257
64 124 149 169 124 137 153 89 85 76 92 99 92 88 101 120 123 118 115 122 120 93 69 38 97 131 127 144 112 107 90 107 110 105 110 114 118 113 94 105 101 79 71 71 79 88 84 88 84 84 72 26 12 10 40 49 63 62 65 73 50 13 1 350 2 9 3 359 354 360 348 1 2 0 354 345 330 327 341 351 335 334 342 342 328 330 325
147 160 126 112 110 104 103 117 86 75 74 112 121 133 134 119 120 123 119 117 121 123 121 119 129 130 133 157 121 138 146 173 167 130 119 107 97 103 110 98 99 105 109 111 107 101 91 86 76 65 68 9 348 15 51 71 72 63 54 64 52 20 5 1 8 6 7 5 356 357 354 352 354 359 3 2 346 332 327 334 340 323 333 340 337 334 331
98 92 86 79 78 91 114 79 48 42 30 81 104 85 122 133 139 126 135 141 149 137 130 139 135 188 130 125 112 110 99 133 141 120 102 99 80 69 72 111 123 120 122 114 108 92 71 49 44 37 38 338 345 0 20 50 58 74 56 62 69 55 12 10 19 9 3 357 360 358 353 356 355 0 358 357 349 338 333 334 339 341 346 341 338 339 334
87 98 97 73 64 28 62 133 168 196 120 101 116 133 132 118 121 128 131 123 147 154 152 158 138 131 92 115 121 136 140 138 75 73 97 106 114 120 79 101 123 127 122 108 99 112 142 119 43 35 345 308 298 329 24 39 35 28 27 21 20 19 19 27 25 5 351 352 358 354 5 2 1 359 352 351 346 347 341 335 325 323 321 325 327 330 325
125 146 124 131 151 172 206 190 142 160 149 130 125 121 138 123 113 116 122 121 125 155 114 113 124 112 113 150 122 100 97 123 134 130 110 118 96 53 100 124 132 129 124 118 118 159 65 27 23 3 322 307 308 320 7 32 32 17 13 11 10 11 7 13 8 354 350 5 6 13 6 359 1 0 0 358 353 341 331 317 317 316 318 317 313 310 316
131 125 93 113 142 145 103 96 92 111 125 97 119 132 132 118 132 143 162 175 182 160 148 79 68 144 139 162 132 136 141 137 136 150 155 132 77 88 119 126 123 119 104 83 19 358 30 27 9 354 318 306 314 322 354 29 23 9 351 353 2 3 12 359 2 359 5 8 14 6 8 12 7 12 6 357 344 332 323 324 326 324 312 315 326 336 343
96 85 96 105 119 125 116 129 156 166 163 162 127 90 116 124 119 169 173 186 171 168 181 96 94 108 130 137 154 149 158 173 174 162 146 123 98 104 122 116 82 51 54 49 21 8 32 11 358 353 321 320 321 321 355 10 348 335 318 318 290 303 310 317 6 24 23 4 349 11 26 20 25 19 10 10 355 338 336 330 333 328 321 326 329 329 333
25 43 107 109 111 131 147 169 168 159 129 86 104 108 67 93 131 170 203 185 126 109 102 107 111 126 139 160 169 165 132 132 144 147 140 138 89 40 169 171 142 155 159 168 314 25 38 350 350 344 322 321 320 318 323 320 316 327 343 45 61 72 110 86 113 143 136 34 9 33 24 23 21 12 9 359 357 354 339 329 331 329 326 324 325 328 327
86 60 70 75 110 131 139 138 149 170 168 120 117 140 154 141 153 182 192 157 181 161 139 128 151 174 178 154 139 138 136 139 134 132 134 150 248 268 195 174 158 162 175 154 273 120 189 22 350 319 310 326 330 326 323 302 324 350 333 345 337 14 61 130 152 149 110 114 71 49 36 23 10 7 13 11 8 352 332 331 331 333 330 332 329 334 325
114 93 71 89 78 93 147 210 176 186 172 182 202 190 187 167 158 163 169 151 136 172 158 172 181 175 165 151 145 142 139 128 121 127 162 196 228 247 280 266 214 215 189 212 237 232 185 335 298 295 309 318 320 307 298 258 232 276 305 334 309 179 162 180 172 117 83 64 57 56 51 31 13 19 17 10 350 318 326 329 332 335 335 332 330 323 326
153 175 184 180 157 161 171 205 217 201 208 206 215 209 202 174 175 157 153 168 157 161 178 180 180 176 165 164 150 132 128 123 149 207 213 219 233 264 314 309 234 231 228 248 117 247 240 241 260 286 296 309 308 306 331 0 160 208 264 326 152 126 156 181 120 118 107 64 72 75 65 37 33 23 15 359 325 322 331 331 336 337 334 340 334 330 330
356 153 144 165 149 151 161 158 179 190 177 186 233 235 231 165 167 167 163 157 172 192 183 160 163 164 145 118 123 150 167 191 209 197 211 222 244 261 308 327 308 321 7 308 328 284 252 258 275 291 303 307 305 295 328 359 327 314 310 290 197 147 165 168 134 149 158 153 106 84 58 46 36 12 330 328 335 338 336 339 346 345 347 343 342 344 350
116 99 73 89 132 149 155 165 178 175 178 187 192 197 197 185 166 136 162 198 191 142 145 157 147 127 125 139 161 190 209 225 211 211 226 243 249 282 344 300 126 94 31 318 284 252 260 276 281 271 287 300 299 318 353 34 312 7 342 300 314 121 149 215 114 110 101 112 114 96 90 76 42 357 336 333 344 344 349 349 352 356 354 354 352 356 359
151 135 155 154 172 171 171 183 176 166 178 186 190 196 181 170 184 192 174 150 158 168 158 147 125 152 201 209 206 210 210 191 187 187 208 222 268 322 261 267 246 188 145 280 271 242 225 246 257 276 285 283 292 275 268 75 17 348 24 47 72 136 187 254 61 134 159 156 127 106 90 61 30 5 347 345 345 351 2 357 358 356 2 3 3 9 10
174 150 154 152 164 166 187 205 189 173 157 166 217 196 180 181 186 171 179 176 171 173 165 165 178 192 188 152 182 204 224 218 203 205 215 237 206 183 270 237 249 178 194 226 242 209 208 234 246 277 298 291 273 176 59 305 283 244 197 199 188 176 190 186 208 157 168 166 137 114 105 86 61 40 20 341 340 2 6 6 5 4 4 8 11 17 18
90 72 79 93 120 134 117 130 144 196 181 178 204 201 205 186 173 162 175 191 182 155 159 174 128 131 168 175 212 238 245 219 201 192 205 223 189 181 225 223 221 206 209 219 228 233 232 225 245 322 274 251 34 44 1 4 352 351 256 218 213 215 215 197 193 190 188 153 130 124 123 119 94 77 16 332 344 358 13 13 15 14 15 12 15 18 17
31 28 183 161 170 187 172 189 194 200 210 199 182 200 183 165 174 184 189 181 194 177 172 151 151 180 204 211 219 235 239 214 182 185 198 189 169 223 282 284 254 241 239 243 246 245 249 229 204 251 274 287 81 37 351 337 339 329 335 313 286 269 252 227 192 192 175 151 142 135 126 132 135 108 30 333 340 359 15 9 20 20 16 23 23 21 24
206 237 143 306 299 315 189 201 207 213 196 197 218 221 179 169 164 164 190 200 202 184 186 179 178 208 211 211 212 229 229 195 188 189 163 135 181 218 238 262 260 227 205 202 213 226 226 224 230 253 265 238 99 60 325 323 333 319 319 325 283 246 225 210 201 201 184 170 158 154 157 158 157 159 199 320 321 357 36 23 15 17 20 23 21 22 31
178 183 161 143 155 168 215 232 280 193 208 229 222 205 184 165 164 189 200 194 180 183 192 207 204 207 220 225 224 240 240 206 184 180 178 185 198 196 212 258 246 219 211 200 207 207 222 224 229 240 262 218 174 208 244 299 337 333 342 3 12 341 313 266 279 308 132 137 152 163 158 167 158 155 191 229 250 233 79 46 31 28 25 28 31 24 24
184 139 158 164 165 162 154 142 169 227 315 295 259 218 185 182 196 192 172 173 183 184 199 215 225 240 247 232 216 231 253 204 186 195 214 242 227 200 199 230 249 245 205 196 195 193 213 225 223 233 234 209 195 193 131 38 2 349 20 9 17 10 351 4 321 284 143 150 161 167 164 165 156 161 179 214 237 264 97 84 83 60 34 38 31 32 35
209 212 190 192 206 224 205 192 181 157 222 270 257 216 192 184 184 181 186 187 192 195 194 209 220 229 235 217 202 230 253 223 212 198 201 263 290 254 230 246 254 219 192 206 193 201 212 223 218 221 220 214 201 191 190 157 3 343 125 96 36 352 351 12 13 40 112 162 165 174 174 168 158 167 175 201 217 215 157 129 130 101 63 53 40 43 39
201 200 204 213 225 249 258 257 239 241 235 238 273 213 211 212 207 191 181 185 192 199 202 208 212 223 227 207 203 214 218 209 193 159 168 237 269 282 237 208 222 221 204 200 199 198 213 224 236 233 221 211 208 196 189 184 165 338 293 265 233 254 313 248 163 111 92 154 171 171 175 174 173 169 174 194 204 193 199 150 152 163 148 122 85 60 35
227 218 211 190 213 222 225 222 236 219 287 303 298 281 234 215 212 197 188 186 195 202 202 203 206 217 219 216 224 228 219 219 213 201 205 190 188 225 210 181 199 196 190 185 191 198 216 225 232 232 221 206 198 199 217 198 168 192 221 233 240 221 226 232 199 147 151 168 178 174 179 177 174 185 179 184 205 189 167 171 144 117 112 145 120 102 69
251 251 211 216 244 259 281 276 190 163 143 149 239 258 250 212 209 202 203 202 200 209 211 212 222 234 227 215 204 203 233 263 274 235 227 250 257 274 236 195 179 175 164 176 192 202 211 219 225 220 209 202 193 205 216 194 189 200 215 231 230 226 217 212 211 183 167 170 171 174 170 173 178 177 170 172 174 188 177 173 172 161 176 115 94 108 108
238 249 256 237 249 286 317 307 152 178 186 201 213 228 245 241 212 220 218 209 217 215 209 214 221 229 218 212 218 220 204 188 229 270 221 216 226 210 189 187 191 175 174 183 194 213 210 210 207 205 204 201 200 217 219 220 207 204 215 220 222 222 221 210 190 186 177 166 155 157 159 158 162 164 169 172 179 173 178 175 174 163 131 128 144 144 145
230 238 262 255 224 226 216 230 224 223 232 229 217 243 242 229 221 200 196 213 220 241 241 238 230 235 232 227 217 213 200 187 184 229 236 178 183 190 204 198 186 172 171 181 197 211 205 205 203 204 210 210 214 226 235 239 237 211 205 213 217 221 220 209 199 183 176 181 177 173 177 177 179 172 171 173 172 176 170 173 161 155 147 139 147 136 139
280 302 297 281 263 254 238 226 228 235 240 217 220 235 210 156 192 240 217 199 208 216 231 248 256 260 246 225 217 218 205 198 208 198 176 182 180 179 181 184 182 181 180 186 197 206 197 194 202 208 212 213 224 243 260 260 240 215 220 217 215 221 218 203 191 186 184 175 174 176 179 183 182 179 167 162 167 169 172 174 150 139 137 133 156 156 143
269 250 252 251 242 246 228 197 201 199 190 204 226 243 182 177 209 226 213 187 167 200 236 246 270 266 277 280 260 229 207 194 191 181 172 176 172 176 178 183 184 184 188 190 198 202 188 188 198 206 208 208 216 232 238 225 219 221 215 206 200 190 179 175 171 180 185 184 181 179 179 176 177 174 171 172 170 175 174 151 147 145 142 153 161 162 143
236 240 256 258 260 264 252 254 258 242 238 235 217 198 201 208 209 235 263 200 182 205 211 215 262 272 236 249 264 241 224 197 173 175 175 167 173 181 184 178 182 189 190 199 210 210 202 194 192 197 205 215 219 224 230 218 212 228 239 221 194 198 189 183 183 181 182 181 177 178 179 179 173 170 176 176 175 172 175 164 151 153 148 159 162 147 129